Regional Weather Roundup
Issued by NWS Kansas City/Pleasant Hill, MO

Home | Current Version | Previous Version | Graphics & Text | Print | Product List | Glossary Off
Versions: 1 2 3 4 5 6 7 8 9 10 11 12 13 14 15 16 17 18 19 20 21 22 23 24 25 26 27 28 29 30 31 32 33 34 35 36 37 38 39 40 41 42 43 44 45 46 47 48 49 50

000
ASUS43 KEAX 201310
RWREAX

WEATHER ROUNDUP FOR EASTERN KANSAS AND NORTHWEST MISSOURI
NATIONAL WEATHER SERVICE KANSAS CITY/PLEASANT HILL MO
800 AM CDT MON OCT 20 2014

KSZ040-057-103>105-MOZ028-029-037-043-201400-
...KANSAS CITY METROPOLITAN AREA...

CITY           SKY/WX    TMP DP  RH WIND       PRES   REMARKS
K.C. INTL      PTCLDY    51  49  92 W3        30.02R
K.C. DOWNTOWN  CLEAR     53  50  89 CALM      30.02R
LEES SUMMIT    CLEAR     51  50  96 W6        30.02R
OLATHE - IXD   CLEAR     48  48 100 S6        30.03R
OLATHE - OJC   CLEAR     52  52 100 SW5       30.01R
LAWRENCE       FOG       43  42  97 NW5       30.02S VSB 1/4

$$

MOZ001>008-011>017-020>025-030>033-038>040-044>046-053-054-201400-
...NORTHERN AND CENTRAL MISSOURI...

CITY           SKY/WX    TMP DP  RH WIND       PRES   REMARKS
ST. JOSEPH     FOG       40  40 100 CALM      30.02R VSB<1/4
MOSBY          MOSUNNY   43  43 100 CALM      30.02R
WHITEMAN AFB   CLEAR     51  49  95 SW7       30.01R
CLINTON        CLEAR     54  54 100 SW6       30.03R
SEDALIA        CLEAR     54  51  90 SW6       30.02R
WARSAW         NOT AVBL
MARSHALL       CLEAR     54  54 100 W5        30.02R
CHILLICOTHE      N/A     47  45  93 CALM      30.01R
MOBERLY        CLEAR     52  48  87 W6        30.00R
KIRKSVILLE     CLEAR     50  47  89 NW6       29.99R

$$

MOZ041-047>049-056>058-063>065-088>090-097-201400-
...EASTERN AND SOUTHERN MISSOURI...

CITY           SKY/WX    TMP DP  RH WIND       PRES   REMARKS
ST. LOUIS INTL PTCLDY    56  49  77 W10       29.97S
SPIRIT OF STL  PTCLDY    55  49  80 W9        29.97R
COLUMBIA       CLEAR     53  51  93 W8        29.99S
JEFFERSON CITY CLEAR     48  46  93 CALM      30.00S
MEXICO         CLEAR    N/A N/A N/A W7        29.98R
HANNIBAL       CLEAR     54  50  87 W8        29.97R
ROLLA          PTCLDY    51  47  86 SW8       30.00R
LEBANON        CLEAR     57  50  77 W8        30.04S
OSAGE BEACH    CLEAR     55  48  76 W5        30.02R
SPRINGFIELD    CLOUDY    57  53  86 SW5       30.04S
BRANSON        CLOUDY    54  50  87 W5        30.07S
NEVADA         CLEAR     55  52  88 SW5       30.04S
JOPLIN         CLOUDY    58  52  80 SW7       30.06R
WEST PLAINS    MOCLDY    53  48  83 W8        30.06R

$$

IAZ060-094-KSZ022-034>040-054-083-096-NEZ052-066-093-201400-
...KANSAS...SOUTHEAST NEBRASKA AND IOWA...

CITY           SKY/WX    TMP DP  RH WIND       PRES   REMARKS
TOPEKA         CLEAR     46  46 100 CALM      30.03R
MANHATTAN      PTCLDY    43  42  97 CALM      30.05R FOG
EMPORIA        FOG       49  49 100 W5        30.04S VSB 1/4
CHANUTE        PTCLDY    55  53  93 S3        30.04R
WICHITA        CLEAR     54  52  93 CALM      30.04R FOG
OMAHA          CLEAR     45  42  89 N7        30.07R
LINCOLN        CLEAR     42  40  92 N5        30.08R
FALLS CITY     CLEAR     48  46  93 NW7       30.02R
LAMONI         CLEAR     49  44  83 N9        30.01R
DES MOINES     CLEAR     47  41  80 NW9       30.02R

$$




USA.gov is the U.S. government's official web portal to all federal, state and local government web resources and services.